Weather History for Sitka, AK

Change the Weather History Date:

Saturday, March 23, 2013

  Actual Average Record
Temperature  
Mean Temperature 36 °F -  
Max Temperature 42 °F 43 °F 53 °F (1990)
Min Temperature 30 °F 32 °F 23 °F (1967)
Degree Days  
Heating Degree Days 30    
Moisture  
Dew Point 26 °F    
Average Humidity 64    
Maximum Humidity 76    
Minimum Humidity 59    
Precipitation  
Precipitation 0.00 in - - ()
Sea Level Pressure  
Sea Level Pressure 30.15 in    
Wind  
Wind Speed 10 mph (ESE)    
Max Wind Speed 17 mph    
Max Gust Speed 25 mph    
Visibility 10 miles    
Events Snow    
Averages and records for this station are not official NWS values.
T = Trace of Precipitation, MM = Missing Value Source: NWS Daily Summary

Daily Weather History Graph

Daily Weather History Graph

Search for Another Location

Airport:

Trip Planner

Search our weather history database for the weather conditions in past years. The results will help you decide how hot, cold, wet, or windy it might be!

Date:

Astronomy

Mar. 23, 2013 Rise Set
Actual Time 6:54 AM AKDT 7:22 PM AKDT
Civil Twilight 6:15 AM AKDT 8:01 PM AKDT
Nautical Twilight 5:29 AM AKDT 8:47 PM AKDT
Astronomical Twilight 4:40 AM AKDT 9:37 PM AKDT
Moon 3:22 PM AKDT (3/23) 5:13 AM AKDT (3/23)
Length of Visible Light 13h 45m
Length of Day
12h 28m
Waxing Gibbous, 86% of the Moon is Illuminated
Mar 23
Waxing Gibbous
Mar 27
Full
Apr 2
Last Quarter
Apr 10
New
Apr 18
First Quarter

Hourly Weather History & Observations

Time (AKDT) Temp. Windchill Dew Point Humidity Pressure Visibility Wind Dir Wind Speed Gust Speed Precip Events Conditions
12:53 AM 33.1 °F 26.1 °F 21.9 °F 64% 30.25 in 10.0 mi East 8.1 mph - N/A   Partly Cloudy
1:53 AM 33.1 °F 25.5 °F 21.9 °F 64% 30.24 in 10.0 mi East 9.2 mph - N/A   Partly Cloudy
2:53 AM 32.0 °F 25.6 °F 23.0 °F 69% 30.23 in 10.0 mi East 6.9 mph - N/A   Mostly Cloudy
3:53 AM 30.9 °F 25.2 °F 23.0 °F 72% 30.23 in 10.0 mi East 5.8 mph - N/A   Mostly Cloudy
4:53 AM 30.9 °F 27.5 °F 24.1 °F 76% 30.21 in 10.0 mi ENE 3.5 mph - N/A   Overcast
5:53 AM 33.1 °F - 26.1 °F 75% 30.21 in 10.0 mi Calm Calm - N/A   Overcast
6:53 AM 34.0 °F 28.0 °F 24.1 °F 67% 30.20 in 10.0 mi East 6.9 mph - N/A   Overcast
7:53 AM 36.0 °F 29.6 °F 23.0 °F 59% 30.20 in 9.0 mi East 8.1 mph - 0.00 in Snow Light Snow
8:53 AM 36.0 °F 29.6 °F 26.1 °F 67% 30.19 in 10.0 mi East 8.1 mph - 0.00 in   Overcast
9:53 AM 37.9 °F 30.5 °F 26.1 °F 62% 30.19 in 10.0 mi ESE 11.5 mph - N/A   Overcast
10:53 AM 39.0 °F 31.4 °F 26.1 °F 60% 30.18 in 10.0 mi ESE 12.7 mph - N/A   Overcast
11:53 AM 39.0 °F 31.0 °F 27.0 °F 62% 30.17 in 10.0 mi East 13.8 mph - N/A   Overcast
12:53 PM 39.9 °F 31.8 °F 27.0 °F 60% 30.16 in 10.0 mi ESE 15.0 mph - N/A   Overcast
1:53 PM 39.9 °F 31.8 °F 27.0 °F 60% 30.16 in 10.0 mi East 15.0 mph - N/A   Overcast
2:53 PM 41.0 °F 34.3 °F 28.0 °F 60% 30.14 in 10.0 mi East 11.5 mph - N/A   Overcast
3:53 PM 41.0 °F 32.8 °F 28.0 °F 60% 30.14 in 10.0 mi ESE 16.1 mph 20.7 mph N/A   Overcast
4:53 PM 41.0 °F 33.5 °F 28.0 °F 60% 30.12 in 10.0 mi ESE 13.8 mph - N/A   Overcast
5:53 PM 41.0 °F 33.9 °F 28.0 °F 60% 30.12 in 10.0 mi ESE 12.7 mph - N/A   Overcast
6:53 PM 39.9 °F 32.1 °F 28.0 °F 63% 30.10 in 10.0 mi ESE 13.8 mph - N/A   Overcast
7:53 PM 41.0 °F 32.8 °F 28.9 °F 62% 30.09 in 10.0 mi ESE 16.1 mph - N/A   Overcast
8:19 PM 41.0 °F 33.5 °F 28.4 °F 61% 30.09 in 10.0 mi ESE 13.8 mph 25.3 mph N/A   Overcast
8:32 PM 39.2 °F 31.2 °F 28.4 °F 65% 30.09 in 10.0 mi ESE 13.8 mph - N/A   Overcast
8:53 PM 39.9 °F 31.4 °F 28.9 °F 65% 30.09 in 10.0 mi ESE 16.1 mph - N/A   Overcast
9:53 PM 41.0 °F 32.5 °F 28.9 °F 62% 30.08 in 10.0 mi East 17.3 mph - N/A   Overcast
10:53 PM 39.9 °F 32.1 °F 28.9 °F 65% 30.07 in 10.0 mi East 13.8 mph - N/A   Overcast
11:53 PM 41.0 °F 33.9 °F 30.0 °F 65% 30.06 in 10.0 mi ESE 12.7 mph - N/A   Overcast